Date String (YYYY-MM-DD hh:mm:ss) UTC,Instrument flags,absolute air pressure of the measurement (hPa),sample flow rate (lpm),inlet stack bypass flow (lpm),air temperature of the measurement (°C),ambient temperature measured by the external sensor (°C),aerosol sample conditioner tube jacket temperature (°C),OPC LED temperature (°C),internal box temperature (°C),relative humidity of the measurement (%),span deviation,mass concentration of particles derived from Lorenz-Mie calculation of OPC scattering (μg/m³),mass concentration of particles derived from Lorenz-Mie calculation of OPC scattering (μg/m³),mass concentration of particles derived from Lorenz-Mie calculation of OPC scattering (μg/m³)
DateTimeUTC,F1_M11,P_M11,Q1_M11,Q2_M11,T1_M11,T2_M11,T3_M11,T4_M11,T5_M11,U1_M11,ZSPAN_M11,X2_M11,X0_M11,X1_M11
2023-06-27 04:00:00,SystemResetWarning,0827.7,5.01,000.00,029.5,027.8,000.0,037.9,031.1,28.6,0000.0,0005.72,0014.69,0004.43
2023-06-27 04:01:00,SystemResetWarning,0827.7,5.01,000.00,029.5,028.0,000.0,038.0,031.1,27.9,0000.0,0005.71,0014.63,0004.43
2023-06-27 04:02:00,SystemResetWarning,0827.7,5.01,000.00,029.6,028.0,000.0,038.0,031.2,27.7,0000.0,0005.74,0014.71,0004.43
2023-06-27 04:03:00,SystemResetWarning,0827.7,4.97,000.00,029.6,026.2,000.0,037.9,031.2,27.6,0000.0,0005.68,0014.98,0004.42
2023-06-27 04:04:00,SystemResetWarning,0827.7,5.03,000.00,029.6,025.1,000.0,037.9,031.2,27.5,0000.0,0005.71,0015.79,0004.44
2023-06-27 04:05:00,SystemResetWarning,0827.7,5.00,000.00,029.5,025.1,000.0,037.9,031.0,27.1,0000.0,0005.71,0016.53,0004.45
2023-06-27 04:06:00,SystemResetWarning,0827.7,5.00,000.00,029.4,025.5,000.0,037.9,030.8,27.3,0000.0,0005.71,0016.93,0004.45
2023-06-27 04:07:00,SystemResetWarning,0827.7,5.00,000.00,029.4,025.9,000.0,037.9,030.7,27.5,0000.0,0005.73,0015.84,0004.44
2023-06-27 04:08:00,SystemResetWarning,0827.7,5.00,000.00,029.4,026.4,000.0,037.9,030.8,27.5,0000.0,0005.73,0015.31,0004.42
2023-06-27 04:09:00,SystemResetWarning,0827.7,5.00,000.00,029.4,026.8,000.0,037.9,030.8,27.4,0000.0,0005.78,0015.43,0004.42
2023-06-27 04:10:00,SystemResetWarning,0827.7,5.00,000.00,029.4,027.1,000.0,037.9,030.9,27.4,0000.0,0005.82,0016.38,0004.43
2023-06-27 04:11:00,SystemResetWarning,0827.7,5.00,000.00,029.4,027.4,000.0,037.9,031.0,27.7,0000.0,0005.79,0016.61,0004.42
2023-06-27 04:12:00,SystemResetWarning,0827.7,5.00,000.00,029.5,027.6,000.0,037.9,031.0,27.7,0000.0,0005.86,0017.07,0004.44
2023-06-27 04:13:00,SystemResetWarning,0827.7,4.99,000.00,029.5,027.8,000.0,038.0,031.1,27.6,0000.0,0005.79,0017.85,0004.44
2023-06-27 04:14:00,SystemResetWarning,0827.7,5.00,000.00,029.5,028.0,000.0,038.0,031.1,28.0,0000.0,0005.77,0017.69,0004.46
2023-06-27 04:15:00,SystemResetWarning,0827.7,5.02,000.00,029.6,028.1,000.0,038.0,031.2,27.9,0000.0,0005.73,0017.66,0004.45
2023-06-27 04:16:00,SystemResetWarning,0827.7,4.99,000.00,029.6,027.0,000.0,038.0,031.3,28.0,0000.0,0005.69,0017.18,0004.44
2023-06-27 04:17:00,SystemResetWarning,0827.7,4.99,000.00,029.6,025.3,000.0,037.9,031.2,27.7,0000.0,0005.68,0017.41,0004.45
2023-06-27 04:18:00,SystemResetWarning,0827.7,5.02,000.00,029.5,025.0,000.0,037.9,031.0,28.1,0000.0,0005.65,0016.60,0004.45
2023-06-27 04:19:00,SystemResetWarning,0827.8,5.00,000.00,029.4,025.3,000.0,037.9,030.8,28.7,0000.0,0005.56,0016.16,0004.46
2023-06-27 04:20:00,SystemResetWarning,0827.7,4.99,000.00,029.4,025.8,000.0,037.9,030.7,28.2,0000.0,0005.55,0016.84,0004.46
2023-06-27 04:21:00,SystemResetWarning,0827.7,4.99,000.00,029.4,026.2,000.0,037.9,030.7,28.1,0000.0,0005.50,0017.90,0004.45
2023-06-27 04:22:00,SystemResetWarning,0827.7,5.02,000.00,029.4,026.6,000.0,037.9,030.8,28.2,0000.0,0005.51,0017.94,0004.45
2023-06-27 04:23:00,SystemResetWarning,0827.7,5.01,000.00,029.4,027.0,000.0,037.9,030.9,28.2,0000.0,0005.53,0017.94,0004.44
2023-06-27 04:24:00,SystemResetWarning,0827.7,4.99,000.00,029.4,027.3,000.0,037.9,031.0,27.9,0000.0,0005.55,0017.04,0004.45
2023-06-27 04:25:00,SystemResetWarning,0827.7,4.99,000.00,029.5,027.5,000.0,038.0,031.0,28.3,0000.0,0005.56,0017.11,0004.45
2023-06-27 04:26:00,SystemResetWarning,0827.7,5.01,000.00,029.5,027.8,000.0,038.0,031.0,28.1,0000.0,0005.56,0017.25,0004.44
2023-06-27 04:27:00,SystemResetWarning,0827.7,5.01,000.00,029.5,027.9,000.0,038.0,031.1,27.5,0000.0,0005.61,0018.46,0004.45
2023-06-27 04:28:00,SystemResetWarning,0827.7,4.99,000.00,029.6,028.1,000.0,038.0,031.2,27.4,0000.0,0005.65,0017.52,0004.46
2023-06-27 04:29:00,SystemResetWarning,0827.7,4.99,000.00,029.6,027.6,000.0,038.0,031.2,27.5,0000.0,0005.63,0017.77,0004.46
2023-06-27 04:30:00,SystemResetWarning,0827.6,5.00,000.00,029.6,025.7,000.0,037.9,031.2,27.4,0000.0,0005.72,0018.60,0004.46
2023-06-27 04:31:00,SystemResetWarning,0827.6,5.01,000.00,029.6,025.0,000.0,037.9,031.1,27.6,0000.0,0005.74,0018.17,0004.46
2023-06-27 04:32:00,SystemResetWarning,0827.6,5.01,000.00,029.5,025.2,000.0,037.9,030.8,27.8,0000.0,0005.74,0016.54,0004.46
2023-06-27 04:33:00,SystemResetWarning,0827.6,5.00,000.00,029.4,025.6,000.0,037.9,030.8,27.8,0000.0,0005.76,0017.28,0004.46
2023-06-27 04:34:00,SystemResetWarning,0827.6,5.00,000.00,029.4,026.1,000.0,037.9,030.8,27.8,0000.0,0005.67,0016.95,0004.46
2023-06-27 04:35:00,SystemResetWarning,0827.6,5.00,000.00,029.4,026.5,000.0,037.9,030.8,28.1,0000.0,0005.65,0017.10,0004.46
2023-06-27 04:36:00,SystemResetWarning,0827.6,5.00,000.00,029.4,026.9,000.0,037.9,030.9,28.3,0000.0,0005.67,0017.04,0004.44
2023-06-27 04:37:00,SystemResetWarning,0827.6,5.01,000.00,029.4,027.2,000.0,037.9,030.9,28.3,0000.0,0005.66,0017.00,0004.43
2023-06-27 04:38:00,SystemResetWarning,0827.6,5.00,000.00,029.4,027.5,000.0,037.9,031.0,28.2,0000.0,0005.64,0016.08,0004.41
2023-06-27 04:39:00,SystemResetWarning,0827.5,4.99,000.00,029.5,027.7,000.0,038.0,031.0,27.8,0000.0,0005.62,0016.41,0004.39
2023-06-27 04:40:00,SystemResetWarning,0827.5,5.00,000.00,029.5,027.9,000.0,038.0,031.1,27.9,0000.0,0005.64,0016.40,0004.38
2023-06-27 04:41:00,SystemResetWarning,0827.5,5.02,000.00,029.5,028.0,000.0,038.0,031.1,28.1,0000.0,0005.65,0016.04,0004.38
2023-06-27 04:42:00,SystemResetWarning,0827.6,5.00,000.00,029.6,028.1,000.0,038.0,031.2,27.9,0000.0,0005.59,0015.48,0004.37
2023-06-27 04:43:00,SystemResetWarning,0827.5,4.98,000.00,029.6,027.4,000.0,038.0,031.3,27.6,0000.0,0005.59,0015.62,0004.37
2023-06-27 04:44:00,SystemResetWarning,0827.5,5.02,000.00,029.6,025.5,000.0,037.9,031.2,27.4,0000.0,0005.61,0015.19,0004.38
2023-06-27 04:45:00,SystemResetWarning,0827.6,5.01,000.00,029.6,025.0,000.0,037.9,031.1,28.1,0000.0,0005.62,0014.03,0004.38
2023-06-27 04:46:00,SystemResetWarning,0827.5,5.00,000.00,029.5,025.2,000.0,037.9,030.8,28.3,0000.0,0005.62,0013.81,0004.38
2023-06-27 04:47:00,SystemResetWarning,0827.4,5.00,000.00,029.4,025.7,000.0,037.9,030.8,27.7,0000.0,0005.62,0014.24,0004.39
2023-06-27 04:48:00,SystemResetWarning,0827.4,4.99,000.00,029.4,026.1,000.0,037.9,030.8,27.5,0000.0,0005.67,0013.89,0004.41
2023-06-27 04:49:00,SystemResetWarning,0827.4,5.01,000.00,029.4,026.5,000.0,037.9,030.8,27.8,0000.0,0005.73,0014.18,0004.43
2023-06-27 04:50:00,SystemResetWarning,0827.4,5.00,000.00,029.4,026.9,000.0,037.9,030.9,27.5,0000.0,0005.68,0014.51,0004.44
2023-06-27 04:51:00,SystemResetWarning,0827.4,4.98,000.00,029.4,027.2,000.0,038.0,030.9,27.6,0000.0,0005.67,0014.68,0004.45
2023-06-27 04:52:00,SystemResetWarning,0827.4,5.01,000.00,029.4,027.5,000.0,038.0,031.0,27.6,0000.0,0005.60,0014.97,0004.46
2023-06-27 04:53:00,SystemResetWarning,0827.4,5.01,000.00,029.5,027.7,000.0,038.0,031.0,27.9,0000.0,0005.59,0015.07,0004.46
2023-06-27 04:54:00,SystemResetWarning,0827.4,5.01,000.00,029.5,027.9,000.0,038.0,031.1,27.4,0000.0,0005.61,0016.28,0004.46
2023-06-27 04:55:00,SystemResetWarning,0827.4,4.98,000.00,029.5,028.0,000.0,038.0,031.1,28.0,0000.0,0005.60,0016.65,0004.47
2023-06-27 04:56:00,SystemResetWarning,0827.4,5.00,000.00,029.6,028.1,000.0,038.0,031.2,27.4,0000.0,0005.62,0016.93,0004.48
2023-06-27 04:57:00,SystemResetWarning,0827.4,5.00,000.00,029.6,028.0,000.0,038.0,031.3,27.1,0000.0,0005.64,0016.90,0004.50
2023-06-27 04:58:00,SystemResetWarning,0827.4,5.00,000.00,029.6,026.1,000.0,038.0,031.3,27.1,0000.0,0005.67,0016.54,0004.50
2023-06-27 04:59:00,SystemResetWarning,0827.4,5.00,000.00,029.6,025.0,000.0,037.9,031.2,27.6,0000.0,0005.65,0017.00,0004.50
